Station Historical Data
Daily Summary for November 20, 2017 Units:  English    Metric   Both
« Previous Day
Next Day »
Daily Weekly Monthly Yearly Custom
  High: Low: Average:
Temperature: 42.8 °F 30.6 °F 35.9 °F
Dew Point: 34.0 °F 20.1 °F 26.5 °F
Humidity: 83% 61% 68%
Wind Speed: 19.0mph 2.0mph 6.9mph
Wind Gust: 30.0mph - -
Wind- - WSW
Pressure: 30.03 in 29.90 in -
Precipitation: 0.00 in    
Historical Graphs
 
 
Tabular Data for November 20, 2017
Time Temperature Dew Point Pressure Wind Wind Speed Wind Gust Humidity Rainfall Rate (Hourly)
00:04 31.2 °F 24.5 °F 29.90 in WNW 9.0 mph 14.0 mph 76% 0.00 in
00:19 31.4 °F 24.1 °F 29.91 in West 8.0 mph 17.0 mph 74% 0.00 in
00:29 31.4 °F 24.1 °F 29.91 in WSW 3.0 mph 14.0 mph 74% 0.00 in
00:34 31.4 °F 24.1 °F 29.91 in West 6.0 mph 14.0 mph 74% 0.00 in
00:39 31.4 °F 24.1 °F 29.91 in West 6.0 mph 14.0 mph 74% 0.00 in
00:44 31.5 °F 24.2 °F 29.91 in West 6.0 mph 13.0 mph 74% 0.00 in
00:49 31.6 °F 24.3 °F 29.91 in West 7.0 mph 16.0 mph 74% 0.00 in
00:59 31.5 °F 24.5 °F 29.92 in West 8.0 mph 16.0 mph 75% 0.00 in
01:04 31.4 °F 24.4 °F 29.92 in West 9.0 mph 16.0 mph 75% 0.00 in
01:09 31.4 °F 24.4 °F 29.92 in WNW 10.0 mph 15.0 mph 75% 0.00 in
01:14 31.5 °F 24.5 °F 29.92 in SSW 3.0 mph 15.0 mph 75% 0.00 in
01:24 31.4 °F 24.1 °F 29.92 in WNW 4.0 mph 13.0 mph 74% 0.00 in
01:29 31.4 °F 24.4 °F 29.92 in WSW 5.0 mph 12.0 mph 75% 0.00 in
01:39 31.4 °F 24.7 °F 29.93 in West 7.0 mph 17.0 mph 76% 0.00 in
01:44 31.3 °F 24.6 °F 29.93 in West 8.0 mph 17.0 mph 76% 0.00 in
01:49 31.3 °F 24.6 °F 29.93 in West 8.0 mph 14.0 mph 76% 0.00 in
01:59 31.2 °F 24.5 °F 29.93 in West 8.0 mph 19.0 mph 76% 0.00 in
02:09 31.1 °F 24.4 °F 29.93 in WSW 7.0 mph 11.0 mph 76% 0.00 in
02:14 31.1 °F 24.4 °F 29.94 in West 7.0 mph 14.0 mph 76% 0.00 in
02:19 31.1 °F 24.4 °F 29.94 in West 7.0 mph 14.0 mph 76% 0.00 in
02:24 31.1 °F 24.1 °F 29.94 in West 8.0 mph 18.0 mph 75% 0.00 in
02:29 31.1 °F 24.1 °F 29.94 in WSW 10.0 mph 12.0 mph 75% 0.00 in
02:34 31.1 °F 23.8 °F 29.94 in WSW 10.0 mph 16.0 mph 74% 0.00 in
02:39 31.1 °F 23.8 °F 29.95 in WNW 8.0 mph 15.0 mph 74% 0.00 in
02:49 31.0 °F 23.0 °F 29.95 in West 8.0 mph 17.0 mph 72% 0.00 in
02:54 31.0 °F 23.0 °F 29.95 in West 8.0 mph 16.0 mph 72% 0.00 in
02:59 30.9 °F 22.6 °F 29.95 in West 8.0 mph 16.0 mph 71% 0.00 in
03:04 30.9 °F 22.6 °F 29.95 in NW 10.0 mph 18.0 mph 71% 0.00 in
03:14 30.8 °F 22.5 °F 29.96 in West 13.0 mph 16.0 mph 71% 0.00 in
03:19 30.8 °F 22.5 °F 29.96 in West 7.0 mph 16.0 mph 71% 0.00 in
03:24 30.7 °F 22.4 °F 29.96 in West 7.0 mph 17.0 mph 71% 0.00 in
03:29 30.7 °F 22.1 °F 29.96 in West 8.0 mph 18.0 mph 70% 0.00 in
03:34 30.7 °F 22.1 °F 29.97 in West 8.0 mph 18.0 mph 70% 0.00 in
03:39 30.7 °F 22.1 °F 29.97 in West 7.0 mph 16.0 mph 70% 0.00 in
03:44 30.7 °F 22.1 °F 29.97 in West 8.0 mph 11.0 mph 70% 0.00 in
03:49 30.6 °F 22.0 °F 29.97 in SW 5.0 mph 14.0 mph 70% 0.00 in
03:54 30.6 °F 21.6 °F 29.97 in West 7.0 mph 15.0 mph 69% 0.00 in
03:59 30.7 °F 21.4 °F 29.97 in West 7.0 mph 15.0 mph 68% 0.00 in
04:09 30.8 °F 21.1 °F 29.97 in WSW 9.0 mph 11.0 mph 67% 0.00 in
04:14 30.8 °F 21.1 °F 29.98 in West 6.0 mph 16.0 mph 67% 0.00 in
04:19 30.8 °F 21.1 °F 29.97 in West 8.0 mph 16.0 mph 67% 0.00 in
04:24 30.8 °F 21.1 °F 29.98 in West 10.0 mph 15.0 mph 67% 0.00 in
04:29 30.8 °F 21.1 °F 29.98 in West 7.0 mph 15.0 mph 67% 0.00 in
04:34 30.8 °F 21.1 °F 29.98 in WSW 7.0 mph 16.0 mph 67% 0.00 in
04:39 30.8 °F 21.1 °F 29.98 in WSW 6.0 mph 16.0 mph 67% 0.00 in
04:44 31.0 °F 21.0 °F 29.98 in WSW 6.0 mph 12.0 mph 66% 0.00 in
04:49 31.0 °F 21.0 °F 29.98 in West 5.0 mph 14.0 mph 66% 0.00 in
04:54 31.0 °F 21.0 °F 29.99 in WSW 12.0 mph 15.0 mph 66% 0.00 in
04:59 31.1 °F 21.1 °F 29.98 in West 7.0 mph 19.0 mph 66% 0.00 in
05:04 31.1 °F 21.1 °F 29.99 in West 9.0 mph 19.0 mph 66% 0.00 in
05:09 31.1 °F 21.1 °F 29.98 in West 7.0 mph 17.0 mph 66% 0.00 in
05:19 30.9 °F 20.5 °F 29.99 in WSW 6.0 mph 13.0 mph 65% 0.00 in
05:24 30.9 °F 20.5 °F 29.98 in WSW 4.0 mph 12.0 mph 65% 0.00 in
05:34 30.9 °F 20.5 °F 29.99 in West 7.0 mph 13.0 mph 65% 0.00 in
05:39 31.0 °F 20.6 °F 29.99 in WSW 7.0 mph 17.0 mph 65% 0.00 in
05:44 31.1 °F 20.3 °F 29.99 in WSW 7.0 mph 17.0 mph 64% 0.00 in
05:49 31.2 °F 20.1 °F 29.99 in WSW 7.0 mph 17.0 mph 63% 0.00 in
05:54 31.3 °F 20.5 °F 30.00 in WSW 7.0 mph 15.0 mph 64% 0.00 in
06:04 31.4 °F 20.6 °F 30.00 in WSW 8.0 mph 23.0 mph 64% 0.00 in
06:09 31.5 °F 20.7 °F 30.00 in West 5.0 mph 14.0 mph 64% 0.00 in
06:14 31.6 °F 20.8 °F 30.00 in WSW 7.0 mph 19.0 mph 64% 0.00 in
06:19 31.7 °F 21.3 °F 30.00 in WSW 7.0 mph 15.0 mph 65% 0.00 in
06:34 31.7 °F 21.6 °F 30.00 in West 10.0 mph 15.0 mph 66% 0.00 in
06:39 31.6 °F 21.5 °F 30.01 in WSW 8.0 mph 20.0 mph 66% 0.00 in
06:44 31.6 °F 21.5 °F 30.01 in West 6.0 mph 20.0 mph 66% 0.00 in
06:49 31.5 °F 21.8 °F 30.01 in West 6.0 mph 14.0 mph 67% 0.00 in
06:54 31.4 °F 21.7 °F 30.01 in West 6.0 mph 14.0 mph 67% 0.00 in
06:59 31.4 °F 21.7 °F 30.01 in West 6.0 mph 13.0 mph 67% 0.00 in
07:04 31.4 °F 21.7 °F 30.01 in WSW 4.0 mph 13.0 mph 67% 0.00 in
07:09 31.5 °F 21.8 °F 30.01 in West 7.0 mph 16.0 mph 67% 0.00 in
07:14 31.5 °F 21.4 °F 30.01 in West 8.0 mph 16.0 mph 66% 0.00 in
07:24 31.5 °F 21.4 °F 30.01 in WSW 8.0 mph 12.0 mph 66% 0.00 in
07:29 31.5 °F 21.4 °F 30.02 in West 6.0 mph 13.0 mph 66% 0.00 in
07:34 31.6 °F 21.5 °F 30.02 in WSW 6.0 mph 15.0 mph 66% 0.00 in
07:39 31.7 °F 21.6 °F 30.02 in West 8.0 mph 13.0 mph 66% 0.00 in
07:44 31.7 °F 22.0 °F 30.02 in SSW 9.0 mph 14.0 mph 67% 0.00 in
07:49 31.7 °F 22.0 °F 30.02 in West 6.0 mph 16.0 mph 67% 0.00 in
07:54 31.8 °F 22.1 °F 30.02 in West 8.0 mph 16.0 mph 67% 0.00 in
08:04 31.8 °F 22.1 °F 30.03 in West 7.0 mph 16.0 mph 67% 0.00 in
08:09 31.7 °F 22.0 °F 30.03 in West 7.0 mph 19.0 mph 67% 0.00 in
08:14 31.7 °F 22.0 °F 30.03 in West 7.0 mph 19.0 mph 67% 0.00 in
08:24 31.8 °F 22.1 °F 30.03 in West 9.0 mph 14.0 mph 67% 0.00 in
08:29 31.9 °F 22.2 °F 30.03 in WSW 5.0 mph 15.0 mph 67% 0.00 in
08:34 31.9 °F 22.2 °F 30.03 in West 6.0 mph 13.0 mph 67% 0.00 in
08:39 32.0 °F 22.3 °F 30.03 in WSW 6.0 mph 13.0 mph 67% 0.00 in
08:44 32.2 °F 22.5 °F 30.03 in West 5.0 mph 14.0 mph 67% 0.00 in
08:49 32.4 °F 22.7 °F 30.03 in WSW 6.0 mph 14.0 mph 67% 0.00 in
08:59 32.7 °F 22.9 °F 30.03 in West 7.0 mph 16.0 mph 67% 0.00 in
09:04 32.7 °F 22.9 °F 30.03 in West 6.0 mph 13.0 mph 67% 0.00 in
09:09 32.9 °F 23.1 °F 30.03 in West 6.0 mph 12.0 mph 67% 0.00 in
09:14 33.0 °F 23.2 °F 30.03 in WSW 5.0 mph 14.0 mph 67% 0.00 in
09:19 33.3 °F 23.5 °F 30.03 in West 10.0 mph 18.0 mph 67% 0.00 in
09:24 33.7 °F 23.5 °F 30.02 in SW 5.0 mph 14.0 mph 66% 0.00 in
09:29 33.9 °F 23.7 °F 30.02 in West 8.0 mph 14.0 mph 66% 0.00 in
09:34 34.1 °F 23.9 °F 30.02 in WSW 9.0 mph 12.0 mph 66% 0.00 in
09:39 34.3 °F 24.1 °F 30.02 in NW 8.0 mph 12.0 mph 66% 0.00 in
09:44 34.5 °F 24.3 °F 30.02 in West 3.0 mph 12.0 mph 66% 0.00 in
09:54 34.9 °F 25.0 °F 30.02 in West 3.0 mph 11.0 mph 67% 0.00 in
09:59 35.1 °F 25.6 °F 30.02 in West 8.0 mph 10.0 mph 68% 0.00 in
10:04 35.2 °F 25.7 °F 30.02 in West 6.0 mph 12.0 mph 68% 0.00 in
10:09 35.4 °F 25.9 °F 30.02 in West 6.0 mph 12.0 mph 68% 0.00 in
10:14 35.6 °F 26.4 °F 30.01 in West 6.0 mph 14.0 mph 69% 0.00 in
10:19 35.6 °F 26.4 °F 30.01 in West 7.0 mph 14.0 mph 69% 0.00 in
10:29 35.8 °F 26.6 °F 30.01 in West 12.0 mph 12.0 mph 69% 0.00 in
10:34 35.9 °F 26.7 °F 30.01 in NW 4.0 mph 11.0 mph 69% 0.00 in
10:49 36.5 °F 27.6 °F 30.01 in NW 6.0 mph 9.0 mph 70% 0.00 in
11:04 36.8 °F 28.3 °F 30.01 in WNW 6.0 mph 8.0 mph 71% 0.00 in
11:09 36.8 °F 28.6 °F 30.01 in West 5.0 mph 10.0 mph 72% 0.00 in
11:14 36.8 °F 28.6 °F 30.01 in West 5.0 mph 10.0 mph 72% 0.00 in
11:19 36.9 °F 29.1 °F 30.00 in West 5.0 mph 10.0 mph 73% 0.00 in
11:24 37.0 °F 29.1 °F 30.00 in West 3.0 mph 9.0 mph 73% 0.00 in
11:29 37.2 °F 29.3 °F 30.00 in West 5.0 mph 9.0 mph 73% 0.00 in
11:34 37.2 °F 29.7 °F 30.00 in WNW 2.0 mph 7.0 mph 74% 0.00 in
11:39 37.3 °F 29.8 °F 30.00 in WSW 5.0 mph 7.0 mph 74% 0.00 in
11:44 37.4 °F 30.2 °F 30.00 in WSW 3.0 mph 7.0 mph 75% 0.00 in
11:49 37.6 °F 31.0 °F 30.00 in SW 3.0 mph 7.0 mph 77% 0.00 in
11:54 37.4 °F 31.8 °F 30.00 in SSW 2.0 mph 8.0 mph 80% 0.00 in
11:59 36.9 °F 31.6 °F 30.00 in WSW 2.0 mph 6.0 mph 81% 0.00 in
12:04 36.4 °F 31.4 °F 29.99 in SW 2.0 mph 8.0 mph 82% 0.00 in
12:09 36.3 °F 31.3 °F 29.99 in SW 3.0 mph 5.0 mph 82% 0.00 in
12:24 38.0 °F 33.3 °F 29.99 in WNW 7.0 mph 20.0 mph 83% 0.00 in
12:34 38.1 °F 33.1 °F 29.98 in WSW 10.0 mph 21.0 mph 82% 0.00 in
12:39 38.3 °F 33.3 °F 29.98 in WSW 10.0 mph 24.0 mph 82% 0.00 in
12:44 38.4 °F 33.4 °F 29.98 in WSW 12.0 mph 22.0 mph 82% 0.00 in
12:49 38.6 °F 33.3 °F 29.98 in WSW 16.0 mph 21.0 mph 81% 0.00 in
12:54 38.8 °F 33.2 °F 29.98 in West 12.0 mph 25.0 mph 80% 0.00 in
13:04 39.1 °F 33.1 °F 29.97 in SSW 11.0 mph 21.0 mph 79% 0.00 in
13:09 39.2 °F 33.2 °F 29.97 in WSW 8.0 mph 24.0 mph 79% 0.00 in
13:14 39.4 °F 33.1 °F 29.97 in West 15.0 mph 21.0 mph 78% 0.00 in
13:24 40.0 °F 33.7 °F 29.97 in WSW 12.0 mph 30.0 mph 78% 0.00 in
13:29 40.3 °F 34.0 °F 29.97 in WSW 12.0 mph 30.0 mph 78% 0.00 in
13:39 40.4 °F 33.8 °F 29.96 in WSW 11.0 mph 22.0 mph 77% 0.00 in
13:44 40.6 °F 34.0 °F 29.97 in SW 13.0 mph 27.0 mph 77% 0.00 in
13:49 40.7 °F 33.7 °F 29.97 in WSW 19.0 mph 25.0 mph 76% 0.00 in
13:54 40.5 °F 33.2 °F 29.97 in WSW 14.0 mph 29.0 mph 75% 0.00 in
13:59 40.5 °F 33.2 °F 29.97 in WSW 4.0 mph 20.0 mph 75% 0.00 in
14:04 40.4 °F 33.1 °F 29.97 in SW 19.0 mph 22.0 mph 75% 0.00 in
14:09 40.3 °F 32.7 °F 29.97 in West 11.0 mph 23.0 mph 74% 0.00 in
14:14 40.3 °F 33.0 °F 29.97 in SW 10.0 mph 18.0 mph 75% 0.00 in
14:24 41.2 °F 33.5 °F 29.97 in WSW 11.0 mph 20.0 mph 74% 0.00 in
14:34 41.5 °F 33.5 °F 29.96 in WSW 11.0 mph 24.0 mph 73% 0.00 in
14:39 41.7 °F 33.3 °F 29.96 in WSW 10.0 mph 19.0 mph 72% 0.00 in
14:44 41.9 °F 33.5 °F 29.96 in SW 13.0 mph 23.0 mph 72% 0.00 in
14:49 42.0 °F 33.3 °F 29.96 in SW 10.0 mph 24.0 mph 71% 0.00 in
14:54 41.9 °F 33.2 °F 29.96 in WNW 11.0 mph 19.0 mph 71% 0.00 in
14:59 41.8 °F 33.1 °F 29.96 in WSW 9.0 mph 19.0 mph 71% 0.00 in
15:04 41.7 °F 33.0 °F 29.96 in WSW 9.0 mph 21.0 mph 71% 0.00 in
15:09 41.6 °F 32.9 °F 29.96 in WSW 10.0 mph 21.0 mph 71% 0.00 in
15:14 41.6 °F 32.9 °F 29.95 in WSW 9.0 mph 22.0 mph 71% 0.00 in
15:19 41.8 °F 32.4 °F 29.96 in West 13.0 mph 19.0 mph 69% 0.00 in
15:24 42.2 °F 32.8 °F 29.96 in SW 13.0 mph 23.0 mph 69% 0.00 in
15:29 42.5 °F 32.7 °F 29.96 in WSW 12.0 mph 25.0 mph 68% 0.00 in
15:34 42.6 °F 32.4 °F 29.96 in WSW 12.0 mph 25.0 mph 67% 0.00 in
15:39 42.7 °F 32.5 °F 29.96 in WSW 10.0 mph 21.0 mph 67% 0.00 in
15:44 42.7 °F 32.5 °F 29.95 in WSW 11.0 mph 22.0 mph 67% 0.00 in
15:49 42.8 °F 32.6 °F 29.95 in WSW 11.0 mph 22.0 mph 67% 0.00 in
15:59 42.8 °F 32.6 °F 29.95 in SSW 10.0 mph 16.0 mph 67% 0.00 in
16:09 42.7 °F 32.1 °F 29.95 in WSW 10.0 mph 19.0 mph 66% 0.00 in
16:24 42.5 °F 31.6 °F 29.95 in SW 7.0 mph 15.0 mph 65% 0.00 in
16:29 42.5 °F 31.6 °F 29.95 in SW 9.0 mph 22.0 mph 65% 0.00 in
16:34 42.5 °F 31.2 °F 29.95 in WSW 10.0 mph 22.0 mph 64% 0.00 in
16:39 42.5 °F 31.2 °F 29.95 in WSW 9.0 mph 22.0 mph 64% 0.00 in
16:44 42.3 °F 31.4 °F 29.95 in WSW 8.0 mph 20.0 mph 65% 0.00 in
16:54 42.2 °F 31.3 °F 29.95 in SW 7.0 mph 15.0 mph 65% 0.00 in
16:59 41.9 °F 30.2 °F 29.95 in SW 6.0 mph 14.0 mph 63% 0.00 in
17:04 41.5 °F 29.4 °F 29.95 in SSW 5.0 mph 13.0 mph 62% 0.00 in
17:09 41.1 °F 28.7 °F 29.95 in SSE 5.0 mph 12.0 mph 61% 0.00 in
17:14 40.6 °F 28.2 °F 29.94 in SSW 4.0 mph 7.0 mph 61% 0.00 in
17:24 40.0 °F 27.6 °F 29.95 in SSW 16.0 mph 16.0 mph 61% 0.00 in
17:29 39.8 °F 27.4 °F 29.95 in SSW 6.0 mph 15.0 mph 61% 0.00 in
17:34 39.6 °F 27.6 °F 29.95 in South 3.0 mph 10.0 mph 62% 0.00 in
17:39 39.4 °F 27.5 °F 29.95 in SSW 4.0 mph 13.0 mph 62% 0.00 in
17:44 39.2 °F 27.3 °F 29.95 in SSW 4.0 mph 13.0 mph 62% 0.00 in
17:49 39.1 °F 27.6 °F 29.95 in SSW 4.0 mph 9.0 mph 63% 0.00 in
17:54 38.9 °F 27.4 °F 29.95 in SSW 4.0 mph 9.0 mph 63% 0.00 in
17:59 38.8 °F 27.3 °F 29.95 in SSW 4.0 mph 9.0 mph 63% 0.00 in
18:04 38.7 °F 27.6 °F 29.95 in SSW 3.0 mph 9.0 mph 64% 0.00 in
18:09 38.6 °F 27.5 °F 29.95 in SSW 5.0 mph 10.0 mph 64% 0.00 in
18:14 38.6 °F 27.5 °F 29.95 in SSW 5.0 mph 10.0 mph 64% 0.00 in
18:24 38.4 °F 27.7 °F 29.95 in SW 3.0 mph 8.0 mph 65% 0.00 in
18:29 38.4 °F 27.7 °F 29.95 in South 7.0 mph 11.0 mph 65% 0.00 in
18:34 38.4 °F 27.7 °F 29.95 in SSW 4.0 mph 10.0 mph 65% 0.00 in
18:39 38.4 °F 27.7 °F 29.95 in SSW 5.0 mph 8.0 mph 65% 0.00 in
18:44 38.3 °F 27.6 °F 29.94 in SSW 4.0 mph 9.0 mph 65% 0.00 in
18:49 38.3 °F 27.6 °F 29.94 in SSW 5.0 mph 9.0 mph 65% 0.00 in
18:59 38.2 °F 27.8 °F 29.94 in SSW 4.0 mph 10.0 mph 66% 0.00 in
19:04 38.3 °F 27.9 °F 29.94 in SSW 5.0 mph 13.0 mph 66% 0.00 in
19:09 38.4 °F 28.0 °F 29.94 in SSW 5.0 mph 13.0 mph 66% 0.00 in
19:14 38.4 °F 28.0 °F 29.94 in SSW 4.0 mph 11.0 mph 66% 0.00 in
19:24 38.8 °F 28.0 °F 29.94 in SSW 4.0 mph 10.0 mph 65% 0.00 in
19:29 39.0 °F 28.2 °F 29.94 in SW 3.0 mph 8.0 mph 65% 0.00 in
19:34 38.9 °F 28.1 °F 29.94 in SSW 3.0 mph 11.0 mph 65% 0.00 in
19:39 38.9 °F 28.1 °F 29.94 in WSW 5.0 mph 9.0 mph 65% 0.00 in
19:44 38.9 °F 28.1 °F 29.94 in SSW 4.0 mph 7.0 mph 65% 0.00 in
19:49 38.9 °F 27.8 °F 29.94 in SW 7.0 mph 10.0 mph 64% 0.00 in
19:54 38.9 °F 27.8 °F 29.94 in SSW 5.0 mph 11.0 mph 64% 0.00 in
20:14 38.6 °F 27.5 °F 29.94 in SSW 5.0 mph 9.0 mph 64% 0.00 in
20:19 38.8 °F 27.3 °F 29.93 in SSW 5.0 mph 10.0 mph 63% 0.00 in
20:24 38.6 °F 27.1 °F 29.94 in SSW 3.0 mph 9.0 mph 63% 0.00 in
20:29 38.5 °F 27.4 °F 29.94 in SSW 4.0 mph 9.0 mph 64% 0.00 in
20:34 38.5 °F 27.4 °F 29.93 in SW 3.0 mph 10.0 mph 64% 0.00 in
20:39 38.4 °F 27.3 °F 29.93 in SW 4.0 mph 9.0 mph 64% 0.00 in
20:44 38.4 °F 27.3 °F 29.93 in SSW 4.0 mph 9.0 mph 64% 0.00 in
20:49 38.3 °F 26.8 °F 29.93 in SSW 4.0 mph 10.0 mph 63% 0.00 in
20:54 38.5 °F 27.0 °F 29.93 in SSW 3.0 mph 10.0 mph 63% 0.00 in
20:59 38.5 °F 27.0 °F 29.93 in SSW 5.0 mph 11.0 mph 63% 0.00 in
21:04 38.5 °F 27.0 °F 29.93 in SSW 5.0 mph 12.0 mph 63% 0.00 in
21:09 38.4 °F 26.9 °F 29.93 in SSW 5.0 mph 12.0 mph 63% 0.00 in
21:19 38.2 °F 27.1 °F 29.93 in SSW 5.0 mph 11.0 mph 64% 0.00 in
21:24 38.1 °F 27.0 °F 29.92 in SSW 5.0 mph 10.0 mph 64% 0.00 in
21:34 38.2 °F 27.1 °F 29.92 in South 5.0 mph 9.0 mph 64% 0.00 in
21:39 38.0 °F 26.9 °F 29.92 in South 4.0 mph 8.0 mph 64% 0.00 in
21:44 38.0 °F 26.9 °F 29.92 in SW 3.0 mph 9.0 mph 64% 0.00 in
21:49 37.9 °F 26.8 °F 29.92 in SW 4.0 mph 7.0 mph 64% 0.00 in
21:54 37.8 °F 26.7 °F 29.92 in SSW 3.0 mph 9.0 mph 64% 0.00 in
21:59 37.6 °F 26.5 °F 29.92 in SW 5.0 mph 8.0 mph 64% 0.00 in
22:09 37.6 °F 26.5 °F 29.92 in SSW 4.0 mph 9.0 mph 64% 0.00 in
22:19 37.7 °F 26.6 °F 29.92 in SSW 4.0 mph 7.0 mph 64% 0.00 in
22:24 37.7 °F 26.6 °F 29.92 in SSW 4.0 mph 7.0 mph 64% 0.00 in
22:29 37.7 °F 26.6 °F 29.92 in SSW 4.0 mph 9.0 mph 64% 0.00 in
22:34 37.8 °F 26.7 °F 29.91 in South 7.0 mph 9.0 mph 64% 0.00 in
22:39 38.0 °F 26.5 °F 29.91 in SW 2.0 mph 8.0 mph 63% 0.00 in
22:44 38.0 °F 26.5 °F 29.91 in SW 7.0 mph 9.0 mph 63% 0.00 in
22:49 38.1 °F 26.6 °F 29.90 in SW 5.0 mph 10.0 mph 63% 0.00 in
22:54 38.3 °F 26.4 °F 29.90 in SSE 2.0 mph 13.0 mph 62% 0.00 in
22:59 38.5 °F 26.6 °F 29.90 in SSE 6.0 mph 10.0 mph 62% 0.00 in
23:19 38.6 °F 26.3 °F 29.90 in SSW 6.0 mph 16.0 mph 61% 0.00 in
23:24 38.6 °F 26.3 °F 29.90 in SSW 6.0 mph 16.0 mph 61% 0.00 in
23:29 38.5 °F 26.2 °F 29.90 in SSW 6.0 mph 16.0 mph 61% 0.00 in
23:34 38.5 °F 26.2 °F 29.90 in SSW 5.0 mph 16.0 mph 61% 0.00 in
23:39 38.6 °F 26.3 °F 29.90 in WSW 5.0 mph 13.0 mph 61% 0.00 in
23:44 38.6 °F 26.3 °F 29.90 in SSW 4.0 mph 10.0 mph 61% 0.00 in
23:49 38.7 °F 26.4 °F 29.90 in SSW 6.0 mph 10.0 mph 61% 0.00 in
23:54 38.8 °F 26.5 °F 29.90 in SSW 6.0 mph 11.0 mph 61% 0.00 in
Buffalo, New York, USA
Compliments of Weather Underground - 2 mb